Content
SEND FEEDBACK

Daily
Averages
Monthly
Summary
United States of America

ST. LOUIS, MISSOURI


Home > North America > United States > Missouri
Elevation: 535 feet     Latitude: 38 45N     Longitude: 090 22W

WEATHER
 
SELECT A DAY
Number of Records: 196,268;   Date Range: 1/1/95 - 7/20/14
 
SHARE

PRINT THIS DATA

[ ← Previous Day ]
WEATHER ALMANAC - AUGUST 21, 2013
[ Next Day → ]
[ °C ]   °F
Weather ElementAverageHighLow
Temperature75.3 °F90 °F (2:54 pm)64 °F (5:54 am)
Dewpoint65.1 °F70 °F (8:54 pm)61 °F (4:54 pm)
Humidity74.5 %100 % (5:51 am)38 % (4:54 pm)
Barometer30.06 in30.11 in (8:54 am)30.01 in (6:54 pm)
Wind Speed2.2 mph8.1 mph (12:54 pm)
Weather ElementAverage
Visibility7.6 mi
Wind DirectionENE (72.2 °)

Weather ElementTotal
Precipitation---
Cooling Degree Days12 (Base 65)
Growing Degree Days27 (Base 50)
Averaged from 27 records on August 21, 2013
WEATHER CONDITIONS BREAKOUT
WIND DIRECTION BREAKOUT
WEATHER BY HOUR - AUGUST 21, 2013
[ °C ]   °F
Local TimeTemperatureDewpointHumidityBarometerVisibilityWind DirectionWind SpeedGust SpeedPrecipitationEventsConditions
1:54 AM66.9 °F64.0 °F90 %30.05 in6.0 miCalmClear
2:54 AM66.0 °F64.0 °F93 %30.05 in4.0 miCalmClear
3:54 AM64.9 °F63.0 °F93 %30.05 in2.5 miCalmClear
4:04 AM66.2 °F64.4 °F94 %30.07 in3.0 miCalmClear
4:54 AM66.0 °F64.0 °F93 %30.06 in4.0 miCalmPartly Cloudy
5:13 AM66.2 °F64.4 °F94 %30.08 in2.5 miCalmClear
5:27 AM64.4 °F62.6 °F94 %30.08 in1.8 miCalmClear
5:51 AM64.4 °F64.4 °F100 %30.09 in5.0 miCalmClear
5:54 AM64.0 °F63.0 °F96 %30.07 in5.0 miCalmClear
6:54 AM64.9 °F64.0 °F97 %30.08 in5.0 miCalmClear
7:54 AM70.0 °F66.0 °F87 %30.10 in7.0 miCalmClear
8:54 AM75.9 °F66.9 °F74 %30.11 in10.0 miVariable3.5 mphClear
9:54 AM81.0 °F66.9 °F62 %30.11 in10.0 miWest (260°)5.8 mphClear
10:54 AM84.0 °F66.0 °F55 %30.10 in10.0 miWSW (250°)5.8 mphClear
11:54 AM84.9 °F66.0 °F53 %30.10 in10.0 miWSW (240°)5.8 mphScattered Clouds
12:54 PM88.0 °F64.0 °F45 %30.09 in10.0 miSW (220°)8.1 mphClear
1:54 PM88.0 °F64.0 °F45 %30.06 in10.0 miVariable5.8 mphScattered Clouds
2:54 PM90.0 °F63.0 °F40 %30.04 in10.0 miWSW (240°)8.1 mphScattered Clouds
3:54 PM90.0 °F63.0 °F40 %30.04 in10.0 miWest (260°)5.8 mphScattered Clouds
4:54 PM90.0 °F61.0 °F38 %30.03 in10.0 miWSW (240°)5.8 mphPartly Cloudy
5:54 PM89.1 °F64.0 °F43 %30.02 in10.0 miWSW (240°)5.8 mphClear
6:54 PM84.0 °F69.1 °F61 %30.01 in10.0 miCalmScattered Clouds
7:54 PM77.0 °F68.0 °F74 %30.01 in10.0 miCalmScattered Clouds
8:54 PM73.9 °F70.0 °F87 %30.02 in10.0 miCalmClear
9:54 PM72.0 °F68.0 °F87 %30.04 in10.0 miCalmClear
10:54 PM71.1 °F66.9 °F87 %30.05 in10.0 miCalmClear
11:54 PM70.0 °F66.9 °F90 %30.06 in10.0 miCalmClear
Hourly data recorded from KSUS, located miles away from St. Louis, Missouri







STORIES FROM OUR PARTNERS